Location: Mexico
(19.4000°N, 99.1500°W)
Time: 00:18:53
(UTC-06:00)

ISS - Pass Details

Date: 10 October 2019
Orbit: 411 x 421 km, 51.6° (Epoch: 14 October)

Event Time Altitude Azimuth Distance (km) Brightness Sun altitude
Rises 19:33:48 0° 330° (NNW) 2,331 0.4 -18.8°
Reaches altitude 10° 19:35:58 10° 337° (NNW) 1,469 -0.7 -19.3°
Enters shadow 19:37:58 29° 2° (N) 774 -2.5 -19.8°
